Location: Fort Wayne
(41.1310°N, 85.1290°W)
Time: 13:49:04
(UTC-04:00)

Oscar 19 - Visible Passes

Search period start: 25 July 2016 00:00
Search period end: 04 August 2016 00:00
Orbit: 773 x 791 km, 98.5° (Epoch: 25 July)

Date Brightness Start Highest point End Pass type
(mag) Time Alt. Az. Time Alt. Az. Time Alt. Az.
25 Jul 11.0 02:53:44 10° NNE 02:58:48 53° E 02:58:58 53° ESE visible
25 Jul 12.3 04:34:03 10° NNW 04:37:43 20° WNW 04:39:31 17° W visible
26 Jul 12.1 02:22:29 10° NE 02:26:43 27° E 02:26:43 27° E visible
26 Jul 11.4 04:01:29 10° N 04:06:13 37° WNW 04:07:17 33° W visible
27 Jul 12.9 01:52:16 10° ENE 01:54:29 13° E 01:54:29 13° E visible
27 Jul 10.5 03:29:24 10° N 03:34:34 72° WNW 03:35:02 67° WSW visible
28 Jul 10.9 02:57:40 10° NNE 03:02:47 58° E 03:02:48 58° ESE visible
28 Jul 12.3 04:38:09 10° NNW 04:41:38 19° WNW 04:43:21 16° W visible
29 Jul 12.0 02:26:21 10° NE 02:30:34 29° E 02:30:34 29° E visible
29 Jul 11.5 04:05:31 10° N 04:10:09 34° WNW 04:11:07 32° W visible
30 Jul 12.8 01:55:54 10° ENE 01:58:19 15° E 01:58:19 15° E visible
30 Jul 10.6 03:33:23 10° N 03:38:32 66° WNW 03:38:52 64° W visible
31 Jul 10.8 03:01:36 10° NNE 03:06:38 63° E 03:06:38 63° E visible
31 Jul 12.4 04:42:17 10° NNW 04:45:33 17° WNW 04:47:11 15° W visible
01 Aug 11.9 02:30:13 10° NNE 02:34:23 31° E 02:34:23 31° E visible
01 Aug 11.6 04:09:33 10° N 04:14:05 32° WNW 04:14:56 30° W visible
02 Aug 12.8 01:59:36 10° NE 02:02:08 16° E 02:02:08 16° E visible
02 Aug 10.7 03:37:22 10° N 03:42:29 61° WNW 03:42:42 60° W visible
03 Aug 10.8 03:05:32 10° NNE 03:10:27 67° E 03:10:27 67° E visible
03 Aug 12.5 04:46:25 10° NNW 04:49:27 16° WNW 04:51:00 14° W visible
